Time,TemperatureF,DewpointF,PressureIn,WindDirection,WindDirectionDegrees,WindSpeedMPH,WindSpeedGustMPH,Humidity,HourlyPrecipIn,Conditions,Clouds,dailyrainin,SoftwareType,DateUTC
2013-12-31 00:03:00,37.5,35.0,30.26,NNE,13,0.0,-999.0,90,-99.99,,,0.00,weatherlink.com 1.10,2013-12-31 06:03:00,
2013-12-31 00:18:00,37.5,35.0,30.28,NNE,13,0.0,-999.0,91,-99.99,,,0.00,weatherlink.com 1.10,2013-12-31 06:18:00,
2013-12-31 00:33:00,37.6,35.0,30.28,NNE,13,0.0,-999.0,91,-99.99,,,0.00,weatherlink.com 1.10,2013-12-31 06:33:00,
2013-12-31 00:48:00,37.7,35.0,30.27,NNE,13,0.0,-999.0,90,-99.99,,,0.00,weatherlink.com 1.10,2013-12-31 06:48:00,
2013-12-31 01:03:00,37.8,35.0,30.27,NNE,13,0.0,-999.0,90,-99.99,,,0.00,weatherlink.com 1.10,2013-12-31 07:03:00,
2013-12-31 01:18:00,37.4,35.0,30.28,NNE,13,0.0,-999.0,89,-99.99,,,0.00,weatherlink.com 1.10,2013-12-31 07:18:00,
2013-12-31 01:33:00,37.1,34.0,30.29,North,5,0.0,-999.0,89,-99.99,,,0.00,weatherlink.com 1.10,2013-12-31 07:33:00,
2013-12-31 01:48:00,36.9,34.0,30.30,NNE,15,2.0,-999.0,88,-99.99,,,0.00,weatherlink.com 1.10,2013-12-31 07:48:00,
2013-12-31 02:03:00,36.7,33.0,30.30,NNW,334,1.0,-999.0,87,-99.99,,,0.00,weatherlink.com 1.10,2013-12-31 08:03:00,
2013-12-31 02:18:00,36.5,33.0,30.31,NW,317,1.0,-999.0,87,-99.99,,,0.00,weatherlink.com 1.10,2013-12-31 08:18:00,
2013-12-31 02:33:00,36.4,33.0,30.31,NW,319,1.0,-999.0,87,-99.99,,,0.00,weatherlink.com 1.10,2013-12-31 08:33:00,
2013-12-31 02:48:00,36.2,33.0,30.31,NW,318,0.0,-999.0,87,-99.99,,,0.00,weatherlink.com 1.10,2013-12-31 08:48:00,
2013-12-31 03:03:00,35.9,32.0,30.31,West,280,1.0,-999.0,87,-99.99,,,0.00,weatherlink.com 1.10,2013-12-31 09:03:00,
2013-12-31 03:18:00,35.7,33.0,30.31,West,267,0.0,-999.0,88,-99.99,,,0.00,weatherlink.com 1.10,2013-12-31 09:18:00,
2013-12-31 03:33:00,35.7,33.0,30.32,WNW,303,0.0,-999.0,88,-99.99,,,0.00,weatherlink.com 1.10,2013-12-31 09:33:00,
2013-12-31 03:48:00,35.8,33.0,30.32,North,355,0.0,-999.0,88,-99.99,,,0.00,weatherlink.com 1.10,2013-12-31 09:48:00,
2013-12-31 04:03:00,35.7,32.0,30.33,West,265,2.0,-999.0,87,-99.99,,,0.00,weatherlink.com 1.10,2013-12-31 10:03:00,
2013-12-31 04:18:00,35.5,32.0,30.34,North,5,0.0,-999.0,87,-99.99,,,0.00,weatherlink.com 1.10,2013-12-31 10:18:00,
2013-12-31 04:33:00,35.2,32.0,30.34,SW,227,1.0,-999.0,88,-99.99,,,0.00,weatherlink.com 1.10,2013-12-31 10:33:00,
2013-12-31 04:48:00,35.0,32.0,30.34,NNE,26,1.0,-999.0,87,-99.99,,,0.00,weatherlink.com 1.10,2013-12-31 10:48:00,
2013-12-31 05:03:00,35.0,32.0,30.35,North,9,0.0,-999.0,87,-99.99,,,0.00,weatherlink.com 1.10,2013-12-31 11:03:00,
2013-12-31 05:18:00,35.0,32.0,30.35,North,5,1.0,-999.0,87,-99.99,,,0.00,weatherlink.com 1.10,2013-12-31 11:18:00,
2013-12-31 05:33:00,35.0,32.0,30.35,North,350,0.0,-999.0,87,-99.99,,,0.00,weatherlink.com 1.10,2013-12-31 11:33:00,
2013-12-31 05:48:00,35.0,32.0,30.36,North,5,0.0,-999.0,87,-99.99,,,0.00,weatherlink.com 1.10,2013-12-31 11:48:00,
2013-12-31 06:03:00,34.9,31.0,30.38,NNW,327,0.0,-999.0,86,-99.99,,,0.00,weatherlink.com 1.10,2013-12-31 12:03:00,
2013-12-31 06:18:00,34.7,31.0,30.38,North,360,0.0,-999.0,86,-99.99,,,0.00,weatherlink.com 1.10,2013-12-31 12:18:00,
2013-12-31 06:33:00,34.6,31.0,30.38,NE,49,1.0,-999.0,86,-99.99,,,0.00,weatherlink.com 1.10,2013-12-31 12:33:00,
2013-12-31 06:49:00,34.4,31.0,30.39,NNE,26,0.0,-999.0,86,-99.99,,,0.00,weatherlink.com 1.10,2013-12-31 12:49:00,
2013-12-31 07:04:00,34.3,31.0,30.39,NNE,14,0.0,-999.0,87,-99.99,,,0.00,weatherlink.com 1.10,2013-12-31 13:04:00,
2013-12-31 07:19:00,34.3,31.0,30.40,NNE,24,0.0,-999.0,87,-99.99,,,0.00,weatherlink.com 1.10,2013-12-31 13:19:00,
2013-12-31 07:34:00,34.3,31.0,30.41,NNW,335,0.0,-999.0,86,-99.99,,,0.00,weatherlink.com 1.10,2013-12-31 13:34:00,
2013-12-31 07:49:00,34.2,31.0,30.42,NNE,21,0.0,-999.0,86,-99.99,,,0.00,weatherlink.com 1.10,2013-12-31 13:49:00,
2013-12-31 08:04:00,34.2,31.0,30.43,NNE,16,1.0,-999.0,86,-99.99,,,0.00,weatherlink.com 1.10,2013-12-31 14:04:00,
2013-12-31 08:19:00,34.2,30.0,30.45,North,350,0.0,-999.0,85,-99.99,,,0.00,weatherlink.com 1.10,2013-12-31 14:19:00,
2013-12-31 08:34:00,34.3,30.0,30.44,NE,39,0.0,-999.0,84,-99.99,,,0.00,weatherlink.com 1.10,2013-12-31 14:34:00,
2013-12-31 08:49:00,34.6,30.0,30.45,NNE,30,0.0,-999.0,84,-99.99,,,0.00,weatherlink.com 1.10,2013-12-31 14:49:00,
2013-12-31 09:04:00,34.9,31.0,30.45,North,350,0.0,-999.0,84,-99.99,,,0.00,weatherlink.com 1.10,2013-12-31 15:04:00,
2013-12-31 09:19:00,35.1,30.0,30.44,NE,34,2.0,-999.0,83,-99.99,,,0.00,weatherlink.com 1.10,2013-12-31 15:19:00,
2013-12-31 09:34:00,35.2,30.0,30.45,NNW,336,0.0,-999.0,82,-99.99,,,0.00,weatherlink.com 1.10,2013-12-31 15:34:00,
2013-12-31 09:49:00,35.4,30.0,30.46,NW,320,0.0,-999.0,82,-99.99,,,0.00,weatherlink.com 1.10,2013-12-31 15:49:00,
2013-12-31 10:04:00,36.1,31.0,30.46,ENE,75,2.0,-999.0,80,-99.99,,,0.00,weatherlink.com 1.10,2013-12-31 16:04:00,
2013-12-31 10:19:00,36.7,30.0,30.45,NNE,26,0.0,-999.0,78,-99.99,,,0.00,weatherlink.com 1.10,2013-12-31 16:19:00,
2013-12-31 10:34:00,37.1,31.0,30.45,NNW,342,0.0,-999.0,77,-99.99,,,0.00,weatherlink.com 1.10,2013-12-31 16:34:00,
2013-12-31 10:49:00,37.9,30.0,30.45,NNE,26,1.0,-999.0,73,-99.99,,,0.00,weatherlink.com 1.10,2013-12-31 16:49:00,
2013-12-31 11:04:00,38.3,29.0,30.44,NNE,23,0.0,-999.0,69,-99.99,,,0.00,weatherlink.com 1.10,2013-12-31 17:04:00,
2013-12-31 11:19:00,38.6,28.0,30.43,NE,46,5.0,-999.0,67,-99.99,,,0.00,weatherlink.com 1.10,2013-12-31 17:19:00,
2013-12-31 11:34:00,38.7,28.0,30.41,NNE,32,3.0,-999.0,66,-99.99,,,0.00,weatherlink.com 1.10,2013-12-31 17:34:00,
2013-12-31 11:49:00,39.3,28.0,30.40,NNE,12,7.0,-999.0,65,-99.99,,,0.00,weatherlink.com 1.10,2013-12-31 17:49:00,
2013-12-31 12:04:00,39.6,28.0,30.40,NE,48,3.0,-999.0,64,-99.99,,,0.00,weatherlink.com 1.10,2013-12-31 18:04:00,
2013-12-31 12:19:00,40.1,28.0,30.40,NE,44,3.0,-999.0,62,-99.99,,,0.00,weatherlink.com 1.10,2013-12-31 18:19:00,
2013-12-31 12:34:00,40.7,27.0,30.39,North,355,0.0,-999.0,59,-99.99,,,0.00,weatherlink.com 1.10,2013-12-31 18:34:00,
2013-12-31 12:49:00,40.5,27.0,30.39,NNW,336,1.0,-999.0,59,-99.99,,,0.00,weatherlink.com 1.10,2013-12-31 18:49:00,
2013-12-31 13:04:00,41.2,28.0,30.39,NE,55,4.0,-999.0,59,-99.99,,,0.00,weatherlink.com 1.10,2013-12-31 19:04:00,
2013-12-31 13:19:00,41.5,28.0,30.39,NNE,18,0.0,-999.0,59,-99.99,,,0.00,weatherlink.com 1.10,2013-12-31 19:19:00,
2013-12-31 13:34:00,41.8,28.0,30.38,NNE,24,0.0,-999.0,58,-99.99,,,0.00,weatherlink.com 1.10,2013-12-31 19:34:00,
2013-12-31 13:49:00,41.9,28.0,30.38,NNE,32,1.0,-999.0,59,-99.99,,,0.00,weatherlink.com 1.10,2013-12-31 19:49:00,
2013-12-31 14:04:00,42.2,28.0,30.37,North,9,0.0,-999.0,58,-99.99,,,0.00,weatherlink.com 1.10,2013-12-31 20:04:00,
2013-12-31 14:20:00,42.5,30.0,30.37,NE,49,1.0,-999.0,61,-99.99,,,0.00,weatherlink.com 1.10,2013-12-31 20:20:00,
2013-12-31 14:35:00,42.7,29.0,30.37,NE,49,2.0,-999.0,58,-99.99,,,0.00,weatherlink.com 1.10,2013-12-31 20:35:00,
2013-12-31 14:50:00,43.0,29.0,30.37,NNE,32,0.0,-999.0,59,-99.99,,,0.00,weatherlink.com 1.10,2013-12-31 20:50:00,
2013-12-31 15:05:00,43.1,29.0,30.38,NNE,32,0.0,-999.0,59,-99.99,,,0.00,weatherlink.com 1.10,2013-12-31 21:05:00,
2013-12-31 15:20:00,42.9,29.0,30.38,NNE,32,0.0,-999.0,59,-99.99,,,0.00,weatherlink.com 1.10,2013-12-31 21:20:00,
2013-12-31 15:35:00,42.9,31.0,30.38,NNE,32,1.0,-999.0,62,-99.99,,,0.00,weatherlink.com 1.10,2013-12-31 21:35:00,
2013-12-31 15:50:00,42.6,30.0,30.38,NNE,32,1.0,-999.0,62,-99.99,,,0.00,weatherlink.com 1.10,2013-12-31 21:50:00,
2013-12-31 16:05:00,42.0,30.0,30.37,SE,140,2.0,-999.0,63,-99.99,,,0.00,weatherlink.com 1.10,2013-12-31 22:05:00,
2013-12-31 16:20:00,41.3,30.0,30.37,SSE,156,4.0,-999.0,64,-99.99,,,0.00,weatherlink.com 1.10,2013-12-31 22:20:00,
2013-12-31 16:35:00,40.8,31.0,30.38,SW,219,0.0,-999.0,68,-99.99,,,0.00,weatherlink.com 1.10,2013-12-31 22:35:00,
2013-12-31 16:50:00,40.0,30.0,30.38,SW,219,0.0,-999.0,67,-99.99,,,0.00,weatherlink.com 1.10,2013-12-31 22:50:00,
2013-12-31 17:05:00,39.3,30.0,30.38,SW,219,1.0,-999.0,69,-99.99,,,0.00,weatherlink.com 1.10,2013-12-31 23:05:00,
2013-12-31 17:20:00,38.6,30.0,30.37,SW,219,0.0,-999.0,72,-99.99,,,0.00,weatherlink.com 1.10,2013-12-31 23:20:00,
2013-12-31 17:35:00,37.9,30.0,30.37,SW,219,0.0,-999.0,74,-99.99,,,0.00,weatherlink.com 1.10,2013-12-31 23:35:00,
2013-12-31 17:50:00,37.2,31.0,30.38,SW,219,0.0,-999.0,77,-99.99,,,0.00,weatherlink.com 1.10,2013-12-31 23:50:00,
2013-12-31 18:05:00,36.6,31.0,30.38,SW,219,0.0,-999.0,79,-99.99,,,0.00,weatherlink.com 1.10,2014-01-01 00:05:00,
2013-12-31 18:20:00,36.0,31.0,30.38,SW,219,0.0,-999.0,81,-99.99,,,0.00,weatherlink.com 1.10,2014-01-01 00:20:00,
2013-12-31 18:35:00,35.6,30.0,30.38,SW,219,0.0,-999.0,80,-99.99,,,0.00,weatherlink.com 1.10,2014-01-01 00:35:00,
2013-12-31 18:50:00,35.2,30.0,30.38,SW,219,0.0,-999.0,80,-99.99,,,0.00,weatherlink.com 1.10,2014-01-01 00:50:00,
2013-12-31 19:20:00,34.4,30.0,30.39,SW,219,0.0,-999.0,83,-99.99,,,0.00,weatherlink.com 1.10,2014-01-01 01:20:00,
2013-12-31 19:35:00,34.1,29.0,30.38,SW,219,1.0,-999.0,82,-99.99,,,0.00,weatherlink.com 1.10,2014-01-01 01:35:00,
2013-12-31 19:50:00,33.9,29.0,30.38,SW,219,0.0,-999.0,82,-99.99,,,0.00,weatherlink.com 1.10,2014-01-01 01:50:00,
2013-12-31 20:05:00,33.4,29.0,30.39,SW,219,0.0,-999.0,85,-99.99,,,0.00,weatherlink.com 1.10,2014-01-01 02:05:00,
2013-12-31 20:20:00,33.0,29.0,30.39,SW,219,0.0,-999.0,86,-99.99,,,0.00,weatherlink.com 1.10,2014-01-01 02:20:00,
2013-12-31 20:35:00,32.7,29.0,30.38,SW,219,0.0,-999.0,87,-99.99,,,0.00,weatherlink.com 1.10,2014-01-01 02:35:00,
2013-12-31 20:50:00,32.4,29.0,30.38,SW,219,0.0,-999.0,88,-99.99,,,0.00,weatherlink.com 1.10,2014-01-01 02:50:00,
2013-12-31 21:05:00,32.1,29.0,30.39,SW,219,0.0,-999.0,88,-99.99,,,0.00,weatherlink.com 1.10,2014-01-01 03:05:00,
2013-12-31 21:20:00,31.9,29.0,30.38,SW,219,0.0,-999.0,89,-99.99,,,0.00,weatherlink.com 1.10,2014-01-01 03:20:00,
2013-12-31 21:35:00,31.7,29.0,30.38,SW,219,0.0,-999.0,89,-99.99,,,0.00,weatherlink.com 1.10,2014-01-01 03:35:00,
2013-12-31 21:50:00,31.6,29.0,30.38,SW,219,0.0,-999.0,89,-99.99,,,0.00,weatherlink.com 1.10,2014-01-01 03:50:00,
2013-12-31 22:05:00,31.4,29.0,30.38,SW,219,0.0,-999.0,89,-99.99,,,0.00,weatherlink.com 1.10,2014-01-01 04:05:00,
2013-12-31 22:20:00,31.3,29.0,30.37,SW,219,0.0,-999.0,91,-99.99,,,0.00,weatherlink.com 1.10,2014-01-01 04:20:00,
2013-12-31 22:35:00,31.1,29.0,30.37,SW,219,0.0,-999.0,91,-99.99,,,0.00,weatherlink.com 1.10,2014-01-01 04:35:00,
2013-12-31 22:50:00,30.8,29.0,30.37,SW,219,0.0,-999.0,91,-99.99,,,0.00,weatherlink.com 1.10,2014-01-01 04:50:00,
2013-12-31 23:05:00,30.6,29.0,30.37,SW,219,0.0,-999.0,92,-99.99,,,0.00,weatherlink.com 1.10,2014-01-01 05:05:00,
2013-12-31 23:20:00,30.7,29.0,30.37,SW,219,2.0,-999.0,92,-99.99,,,0.00,weatherlink.com 1.10,2014-01-01 05:20:00,
2013-12-31 23:35:00,30.6,29.0,30.36,East,79,2.0,-999.0,93,-99.99,,,0.00,weatherlink.com 1.10,2014-01-01 05:35:00,
2013-12-31 23:50:00,30.8,29.0,30.36,East,79,0.0,-999.0,93,-99.99,,,0.00,weatherlink.com 1.10,2014-01-01 05:50:00,